GOKTURK 1A (41875 NORAD) Tracking and Keplerian Element Data

This shows tracking and keplerian element data for the satellite.

Feedback or suggestion? Click here.




ElementValue
Catalog41875
NameGOKTURK 1A
Epoch Orbit10430
Epoch Day323.1016344
Epoch Year2018
RAAN215.4638
Inclination98.1522
Eccentricity0.0001399
Argument of Perigee86.0663
Mean Anonmoly274.0702
Mean Motion14.62745735
Decay Rate5.3E-07
L11 41875U 16073A 18323.10163440 .00000053 00000-0 19537-4 0 9995
L22 41875 98.1522 215.4638 0001399 86.0663 274.0702 14.62745735104308

Live tracking and technical data element details for GOKTURK 1A (NORAD 41875). GOKTURK 1A can be tracked NOW for your location showing map with azimuth and elevation plus other details from your city location.

Track the satellite on the map from your city or location and see movement details for azimuth, elevation, latitude, longitude, range, height, and movement on the map or in text.







IsCatalogInMostPopularTable: catalog: 41875, numindb: 131
Update: records affected: 1



GetName: 41875 GOKTURK 1A

Hit Count: updated at: Mon, 19 Nov 2018 12:20:35 GMT